View from above orbital plane
|
View from above satellite
|
Ground track
|
The orbit data is extracted from the following two-line orbital elements,
1 31132U 07012Q 21023.38761570 .00000146 00000-0 39865-4 0 9991
2 31132 98.1931 330.2725 0080435 351.9814 8.0094 14.59255701732389
Epoch (UTC): | 23 January 2021 09:18:09 |
Eccentricity: | 0.0080435 |
inclination: | 98.1931° |
perigee height: | 638 km |
apogee height: | 752 km |
right ascension of ascending node: | 330.2725° |
argument of perigee: | 351.9814° |
revolutions per day: | 14.59255701 |
mean anomaly at epoch: | 8.0094° |
orbit number at epoch: | 73238 |
The dashed part of the orbit path shows where the satellite is in the earth's shadow,
|
|